Regional Weather Roundup
Issued by NWS

Home | Current Version | Previous Version | Graphics & Text | Print | Product List | Glossary On
Versions: 1 2 3 4 5 6 7 8 9 10 11 12 13 14 15 16 17 18 19 20 21 22 23 24 25 26 27 28 29 30 31 32 33 34 35 36 37 38 39 40 41 42 43 44 45 46 47 48 49 50
000
ASUS43 KTOP 272008
RWRKS

WEATHER ROUNDUP FOR KANSAS
NATIONAL WEATHER SERVICE GOODLAND KS
300 PM CDT MON MAR 27 2017

NOTE:  "FAIR" INDICATES FEW OR NO CLOUDS BELOW 12,000 FEET WITH NO
SIGNIFICANT WEATHER AND/OR OBSTRUCTIONS TO VISIBILITY.

KSZ001>006-013>018-027>032-041>047-272100-
NORTHWEST KANSAS

CITY           SKY/WX    TMP DP  RH WIND       PRES   REMARKS
GOODLAND       SUNNY     63  38  39 SE8       29.88F
HAYS             N/A     60  44  55 VRB3      29.93F
HILL CITY      SUNNY     58  46  64 VRB6      29.93F
RUSSELL        MOSUNNY   61  41  47 NE8       29.92F
$$

KSZ061>065-074>080-084>089-272100-
SOUTHWEST KANSAS

CITY           SKY/WX    TMP DP  RH WIND       PRES   REMARKS
DODGE CITY     SUNNY     63  37  38 VRB3      29.91F
ELKHART          N/A     64  38  38 SE10        N/A
GARDEN CITY    SUNNY     64  36  35 VRB5      29.91F
GREAT BEND     SUNNY     59  43  55 NE8       29.94F
LIBERAL        SUNNY     64  36  34 E5        29.93F
PRATT          SUNNY     59  41  51 NE6       29.93F
$$

KSZ066>073-081>083-090>101-272100-
SOUTHEAST KANSAS

CITY           SKY/WX    TMP DP  RH WIND       PRES   REMARKS
CHANUTE        CLOUDY    54  47  77 N8        29.93R
COFFEYVILLE    CLOUDY    56  49  77 NW9       29.93F
HUTCHINSON     CLOUDY    53  45  74 N7        29.95F
MEDICINE LODGE   N/A     64  39  39 N7        29.92F
NEWTON         CLOUDY    51  46  83 N9        29.96F
PARSONS        CLOUDY    56  48  74 NW14      29.94S
WICHITA INTL   CLOUDY    53  46  77 N12       29.95F
WICHITA JABRA  CLOUDY    52  46  80 N14       29.95F
WICHITA MCCONL CLOUDY    52  45  76 NE13      29.94F
WINFIELD       CLOUDY    55  46  71 N13       29.94F
$$

KSZ007>012-019>026-033>040-048>060-102>105-272100-
NORTHEAST KANSAS

CITY           SKY/WX    TMP DP  RH WIND       PRES   REMARKS
CONCORDIA      CLOUDY    51  46  83 VRB6      29.97F
EMPORIA        CLOUDY    52  47  83 N7        29.94S
LAWRENCE       CLOUDY    54  49  83 N13       29.92F
MANHATTAN      CLOUDY    55  46  71 VRB5      29.95S
MARYSVILLE     CLOUDY    52  45  76 N8        29.95F
OLATHE IND     CLOUDY    52  47  83 N13       29.92S
OLATHE EXE     CLOUDY    52  48  86 N13       29.91S
SALINA         CLOUDY    55  46  71 N9        29.97F
TOPEKA BILLARD CLOUDY    55  49  80 N13       29.93F
TOPEKA FORBES  CLOUDY    55  48  77 N13       29.93F
$$



USA.gov is the U.S. government's official web portal to all federal, state and local government web resources and services.